Regional Weather Roundup
Issued by NWS Goodland, KS

Home | Current Version | Previous Version | Graphics & Text | Print | Product List | Glossary On
Versions: 1 2 3 4 5 6 7 8 9 10 11 12 13 14 15 16 17 18 19 20 21 22 23 24 25 26 27 28 29 30 31 32 33 34 35 36 37 38 39 40 41 42 43 44 45 46 47 48 49 50
813
ASUS43 KGLD 061008
RWRGLD

GOODLAND FORECAST AREA HOURLY WEATHER ROUNDUP
NATIONAL WEATHER SERVICE GOODLAND KS
300 AM MST TUE DEC 06 2016

...OFFICIAL OBSERVATIONS...

CITY           SKY/WX    TMP DP  RH WIND       PRES   REMARKS
GOODLAND KS    CLOUDY    12   6  77 NW12      30.01R WCI  -2
HILL CITY KS   PTCLDY    23  13  65 N9        30.03R
IMPERIAL NEB   CLEAR     18   6  59 NW16      30.00F WCI   3
MCCOOK NEB     PTCLDY    21  11  65 W13       30.02S WCI   9
AKRON CO       PTCLDY     7   2  80 N9        29.97S
BURLINGTON CO  CLOUDY     9   2  73 NW7       29.99R
LIMON CO       CLOUDY     7   4  87 W10       29.95S WCI  -8
$$

...UNOFFICIAL OBSERVATIONS...

CITY           SKY/WX    TMP DP  RH WIND       PRES   REMARKS
COLBY KS       CLEAR     19  12  73 NW15      30.02S WCI   5
LENORA KS        N/A     23  32 100 MISG        N/A
NORTON KS      PTCLDY    21   9  58 NW16      29.99S WCI   7
SHARON SPRINGS   N/A     17   8  67 N13         N/A  WCI   4
TRENTON NEB      N/A     19  32 100 NW9         N/A
KIT CARSON CO    N/A     14   6  70 MISG        N/A
YUMA CO        FAIR       9   3  78 W6        30.00S
$$




USA.gov is the U.S. government's official web portal to all federal, state and local government web resources and services.